Powrót do katalogu

ONEWEB-0149

AktywnyŁącznośćPO
NORAD 48058·PAYLOAD·🇬🇧 United Kingdom

Wystrzelony Mar 25, 2021 z Vostochny Cosmodrome

Loading…

Następne Przeloty (najbliższe 24 godziny)

TLE

ŚwieżeSource: CelesTrak SupGP

Epoka: Sep 14, 2026, 23:37 UTC

1 48058C 21025S   26257.98419399  .00003567  00000+0  97806-2 0  2578
2 48058  87.8916 302.3623 0001959 102.8970 314.0485 13.13463305    11

Śledź ONEWEB-0149 w czasie rzeczywistym z AllMySat

Download on the App Store